KM4NDI Weather Reports


Display with metric or nautical units.
time (UTC)temp
F
wind
direction
speed
MPH
gust
MPH
rain 1hr
in
rain 24hr
in
rain mn
in
humidity
%
barometer
mb
20260831041530 73 0.0 0.0 0.00 0.00 0.00 99 1020.2
20260831040516 73 0.0 0.0 0.00 0.00 0.00 99 1020.2
20260831035539 73 0.0 0.0 0.00 0.00 0.00 99 1020.2
20260831034522 73 0.0 0.0 0.00 0.00 0.00 99 1020.2
20260831033525 73 0.0 0.0 0.00 0.00 0.00 98 1020.2
20260831032529 73 0.0 0.0 0.00 0.00 0.00 98 1020.2
20260831031531 74 0.0 0.0 0.00 0.00 0.00 98 1020.2
20260831030517 74 0.0 0.0 0.00 0.00 0.00 98 1020.2
20260831025540 74 0.0 0.0 0.00 0.00 0.00 97 1020.2
20260831024543 74 0.0 0.0 0.00 0.00 0.00 97 1020.2
20260831023526 75 0.0 0.0 0.00 0.00 0.00 97 1020.1
20260831022529 75 0.0 0.0 0.00 0.00 0.00 96 1019.9
20260831021532 75 0.0 0.0 0.00 0.00 0.00 96 1019.9
20260831020517 75 0.0 0.0 0.00 0.00 0.00 96 1019.9
20260831015520 76 0.0 0.0 0.00 0.00 0.00 95 1019.9
20260831014543 76 0.0 0.0 0.00 0.00 0.00 94 1019.5
20260831013527 76 0.0 0.0 0.00 0.00 0.00 94 1019.5
20260831012524 77 0.0 0.0 0.00 0.00 0.00 93 1019.5
20260831011515 77 0.0 0.0 0.00 0.00 0.00 92 1019.4
20260831010518 77 0.0 0.0 0.00 0.00 0.00 91 1019.4
20260831005535 78 0.0 0.0 0.00 0.00 0.00 90 1019.4
20260831004544 79 0.0 0.0 0.00 0.00 0.00 88 1019.2
20260831003527 80 0.0 0.0 0.00 0.00 0.00 87 1019.2
20260831002531 81 0.0 0.0 0.00 0.00 0.00 84 1019.2
20260831001516 82 0.0 0.0 0.00 0.00 0.00 79 1019.2
20260831000519 83 0.0 0.0 0.00 0.00 0.00 77 1019.3
20260830235522 84 0.0 0.0 0.00 0.00 0.00 74 1019.4
20260830234525 85 0.0 0.0 0.00 0.00 0.00 71 1019.2
20260830233528 86 0.0 0.0 0.00 0.00 0.00 67 1019.2
20260830232531 87 0.0 0.0 0.00 0.00 0.00 65 1019.0
20260830231516 88 0.0 0.0 0.00 0.00 0.00 62 1019.1
20260830230519 90 0.0 0.0 0.00 0.00 0.00 60 1019.1
20260830225522 91 0.0 0.0 0.00 0.00 0.00 57 1019.0
20260830224525 92 0.0 0.0 0.00 0.00 0.00 55 1019.2
20260830223549 94 0.0 0.0 0.00 0.00 0.00 52 1018.8
20260830222532 95 0.0 0.0 0.00 0.00 0.00 50 1018.8
20260830221517 93 90 0.0 2.0 0.00 0.00 0.00 53 1018.9
20260830220520 92 0.0 0.0 0.00 0.00 0.00 58 1019.0
20260830215523 91 0.0 0.0 0.00 0.00 0.00 57 1019.0
20260830214521 91 158 0.0 1.0 0.00 0.00 0.00 56 1019.2
20260830213517 91 0.0 0.0 0.00 0.00 0.00 56 1019.2
20260830212515 91 0.0 0.0 0.00 0.00 0.00 56 1019.2
20260830211518 93 147 1.0 4.0 0.00 0.00 0.00 53 1019.3
20260830210621 93 142 1.0 3.0 0.00 0.00 0.00 56 1019.4
20260830205524 93 0.0 0.0 0.00 0.00 0.00 53 1019.4
20260830204527 92 0.0 0.0 0.00 0.00 0.00 55 1019.7
20260830203530 91 0.0 0.0 0.00 0.00 0.00 58 1019.7
20260830202515 92 0.0 0.0 0.00 0.00 0.00 55 1019.9
20260830201518 93 98 1.0 4.0 0.00 0.00 0.00 52 1020.0
20260830200521 93 194 1.0 3.0 0.00 0.00 0.00 52 1020.1
20260830195545 91 195 2.0 7.0 0.00 0.00 0.00 58 1020.2
20260830194528 89 125 0.0 2.0 0.00 0.00 0.00 59 1020.2
20260830193531 88 0.0 0.0 0.00 0.00 0.00 63 1020.2
20260830192516 91 102 2.0 3.0 0.00 0.00 0.00 57 1020.2
20260830191519 92 90 0.0 3.0 0.00 0.00 0.00 55 1020.4
20260830190522 92 180 0.0 3.0 0.00 0.00 0.00 58 1020.5
20260830185525 89 233 1.0 4.0 0.00 0.00 0.00 58 1020.9
20260830184529 93 169 2.0 5.0 0.00 0.00 0.00 52 1020.9
20260830183526 92 145 1.0 3.0 0.00 0.00 0.00 54 1020.9
20260830182517 92 0.0 0.0 0.00 0.00 0.00 57 1021.2
20260830181520 92 113 1.0 3.0 0.00 0.00 0.00 56 1021.4
20260830180537 91 0.0 0.0 0.00 0.00 0.00 60 1021.6
20260830175526 89 0.0 0.0 0.00 0.00 0.00 60 1021.7
20260830174529 91 178 2.0 5.0 0.00 0.00 0.00 57 1021.7
20260830173552 90 0.0 0.0 0.00 0.00 0.00 58 1021.8
20260830172518 91 0.0 2.0 0.00 0.00 0.00 57 1022.0
20260830171521 90 104 2.0 4.0 0.00 0.00 0.00 59 1022.2
20260830170544 90 171 1.0 5.0 0.00 0.00 0.00 60 1022.3
20260830165527 89 118 2.0 4.0 0.00 0.00 0.00 62 1022.2
20260830164530 88 0.0 0.0 0.00 0.00 0.00 63 1022.3
20260830163515 89 102 1.0 4.0 0.00 0.00 0.00 61 1022.4
20260830162518 87 0.0 1.0 0.00 0.00 0.00 65 1022.6
20260830161521 88 146 4.0 7.0 0.00 0.00 0.00 61 1022.7
20260830160604 88 164 3.0 5.0 0.00 0.00 0.00 63 1022.8
20260830155547 88 107 2.0 3.0 0.00 0.00 0.00 67 1022.7
20260830154531 87 0.0 0.0 0.00 0.00 0.00 71 1022.7
20260830153516 86 185 2.0 4.0 0.00 0.00 0.00 69 1022.8
20260830152519 86 194 2.0 5.0 0.00 0.00 0.00 71 1022.8
20260830151522 85 96 2.0 4.0 0.00 0.00 0.00 72 1022.9
20260830150525 84 152 1.0 4.0 0.00 0.00 0.00 74 1022.9
20260830145522 85 125 1.0 4.0 0.00 0.00 0.00 73 1022.9
20260830144519 84 100 2.0 5.0 0.00 0.00 0.00 74 1022.8
20260830143516 84 158 2.0 5.0 0.00 0.00 0.00 76 1022.9
20260830142519 83 175 1.0 5.0 0.00 0.00 0.00 79 1022.9
20260830141543 82 203 0.0 3.0 0.00 0.00 0.00 80 1022.9
20260830140526 81 247 1.0 4.0 0.00 0.00 0.00 83 1022.9
20260830135529 80 0 0.0 2.0 0.00 0.00 0.00 87 1022.8
20260830134552 79 165 0.0 3.0 0.00 0.00 0.00 92 1022.7
20260830133517 77 190 0.0 2.0 0.00 0.00 0.00 95 1022.7
20260830132520 76 0.0 0.0 0.00 0.00 0.00 98 1022.5
20260830131543 74 0.0 0.0 0.00 0.00 0.00 99 1022.5
20260830130526 73 0.0 0.0 0.00 0.00 0.00 99 1022.4
20260830125530 72 0.0 0.0 0.00 0.00 0.00 99 1022.3
20260830124533 71 0.0 0.0 0.00 0.00 0.00 99 1022.3
20260830123518 71 0.0 0.0 0.00 0.00 0.00 99 1022.3
20260830122521 70 0.0 0.0 0.00 0.00 0.00 99 1022.3
20260830121524 70 0.0 0.0 0.00 0.00 0.00 99 1022.2
20260830120527 70 0.0 0.0 0.00 0.00 0.00 99 1022.2
20260830115530 69 0.0 0.0 0.00 0.00 0.00 99 1022.2
20260830114515 69 0.0 0.0 0.00 0.00 0.00 99 1022.0
20260830113518 69 0.0 0.0 0.00 0.00 0.00 99 1022.0
20260830112522 69 0.0 0.0 0.00 0.00 0.00 99 1021.9
20260830111519 69 0.0 0.0 0.00 0.00 0.00 99 1021.7
20260830110516 69 0.0 0.0 0.00 0.00 0.00 99 1021.7
20260830105531 70 0.0 0.0 0.00 0.00 0.00 99 1021.6
20260830104516 69 0.0 0.0 0.00 0.00 0.00 99 1021.4
20260830103519 70 0.0 0.0 0.00 0.00 0.00 99 1021.2
20260830102523 70 0.0 0.0 0.00 0.00 0.00 99 1021.1
20260830101526 70 0.0 0.0 0.00 0.00 0.00 99 1021.0
20260830100529 70 0.0 0.0 0.00 0.00 0.00 99 1020.9
20260830095532 70 0.0 0.0 0.00 0.00 0.00 99 1020.9
20260830094517 70 0.0 0.0 0.00 0.00 0.00 99 1020.8
20260830093520 70 0.0 0.0 0.00 0.00 0.00 99 1020.9
20260830092523 70 0.0 0.0 0.00 0.00 0.00 99 1020.9
20260830091526 70 0.0 0.0 0.00 0.00 0.00 99 1020.8
20260830090529 70 0.0 0.0 0.00 0.00 0.00 99 1020.8
20260830085515 71 0.0 0.0 0.00 0.00 0.00 99 1020.8
20260830084537 71 0.0 0.0 0.00 0.00 0.00 99 1020.7
20260830083541 71 0.0 0.0 0.00 0.00 0.00 99 1020.6
20260830082544 71 0.0 0.0 0.00 0.00 0.00 99 1020.4
20260830081527 71 0.0 0.0 0.00 0.00 0.00 99 1020.4
20260830080524 71 0.0 0.0 0.00 0.00 0.00 99 1020.4
20260830075515 71 0.0 0.0 0.00 0.00 0.00 99 1020.4
20260830074518 71 0.0 0.0 0.00 0.00 0.00 99 1020.4
20260830073535 71 0.0 0.0 0.00 0.00 0.00 99 1020.4
20260830072524 71 0.0 0.0 0.00 0.00 0.00 99 1020.6
20260830071527 72 0.0 0.0 0.00 0.00 0.00 99 1020.7
20260830070530 72 0.0 0.0 0.00 0.00 0.00 99 1020.7
20260830065536 72 0.0 0.0 0.00 0.00 0.00 99 1020.8
20260830064559 72 0.0 0.0 0.00 0.00 0.00 99 1020.7
20260830063522 72 0.0 0.0 0.00 0.00 0.00 99 1020.8
20260830062605 72 0.0 0.0 0.00 0.00 0.00 99 1020.9
20260830061528 72 0.0 0.0 0.00 0.00 0.00 99 1020.9
20260830060531 72 0.0 0.0 0.00 0.00 0.00 99 1020.9
20260830055516 72 0.0 0.0 0.00 0.00 0.00 99 1020.9
20260830054519 72 0.0 0.0 0.00 0.00 0.00 99 1021.1
20260830053543 72 0.0 0.0 0.00 0.00 0.00 99 1021.1
20260830052526 72 0.0 0.0 0.00 0.00 0.00 99 1020.9
20260830051529 72 0.0 0.0 0.00 0.00 0.00 99 1021.0
20260830050532 73 0.0 0.0 0.00 0.00 0.00 99 1021.0
20260830045517 73 0.0 0.0 0.00 0.00 0.00 99 1020.9
20260830044520 73 0.0 0.0 0.00 0.00 0.00 99 1021.1
20260830043523 73 0.0 0.0 0.00 0.00 0.00 99 1021.3
20260830042520 73 0.0 0.0 0.00 0.00 0.00 99 1021.3